User: anonymous   Login
Location: Unspecified
(0.0000°N, 0.0000°E)
Time: 09:04:25
(UTC+00:00)
Language:

Telecom 2C - Orbit

View from above orbital plane
View from above orbital plane
View from above satellite
View from above satellite

Ground track
Ground track

The orbit data is extracted from the following two-line orbital elements,

1 23730U 95067A   18017.89566091 -.00000147  00000-0  00000+0 0  9995
2 23730  11.0872  37.4159 0021576 236.1175 123.7324  0.97940996 80420
Epoch (UTC): 17 January 2018 21:29:45
Eccentricity: 0.0021576
inclination: 11.0872°
perigee height: 36360 km
apogee height: 36545 km
right ascension of ascending node: 37.4159°
argument of perigee: 236.1175°
revolutions per day: 0.97940996
mean anomaly at epoch: 123.7324°
orbit number at epoch: 8042

The dashed part of the orbit path shows where the satellite is in the earth's shadow,  

DLR